| time (UTC) | temp F | wind direction | speed MPH | gust MPH | rain 1hr in | rain 24hr in | rain mn in | humidity % | barometer mb |
| 20260507062821 | 49 | 333 | 3.0 | 6.0 | 0.07 | 0.23 | 0.09 | 90 | 1009.0 |
| 20260507062317 | 49 | 295 | 2.0 | 4.0 | 0.05 | 0.21 | 0.07 | 89 | 1009.5 |
| 20260507061818 | 49 | 326 | 1.0 | 4.0 | 0.05 | 0.21 | 0.07 | 89 | 1009.4 |
| 20260507061314 | 50 | 324 | 1.0 | 5.0 | 0.05 | 0.20 | 0.06 | 89 | 1009.3 |
| 20260507060830 | 50 | 272 | 1.0 | 5.0 | 0.05 | 0.19 | 0.05 | 89 | 1009.2 |
| 20260507060327 | 50 | 331 | 1.0 | 5.0 | 0.05 | 0.19 | 0.05 | 88 | 1009.1 |
| 20260507055822 | 50 | 296 | 2.0 | 5.0 | 0.04 | 0.18 | 0.04 | 88 | 1009.6 |
| 20260507055318 | 50 | 360 | 2.0 | 4.0 | 0.03 | 0.17 | 0.03 | 88 | 1008.9 |
| 20260507054815 | 50 | 251 | 1.0 | 5.0 | 0.03 | 0.17 | 0.03 | 87 | 1009.1 |
| 20260507054314 | 50 | 275 | 1.0 | 5.0 | 0.02 | 0.16 | 0.02 | 87 | 1009.1 |
| 20260507053830 | 50 | 319 | 2.0 | 6.0 | 0.02 | 0.16 | 0.02 | 87 | 1008.8 |
| 20260507053327 | 51 | 346 | 1.0 | 6.0 | 0.02 | 0.16 | 0.02 | 87 | 1008.7 |
| 20260507052823 | 51 | 278 | 1.0 | 6.0 | 0.02 | 0.16 | 0.02 | 86 | 1008.6 |
| 20260507052318 | 51 | 19 | 2.0 | 5.0 | 0.02 | 0.16 | 0.02 | 85 | 1008.6 |
| 20260507051815 | 51 | 282 | 1.0 | 10.0 | 0.02 | 0.16 | 0.02 | 84 | 1008.3 |
| 20260507051311 | 52 | 355 | 2.0 | 8.0 | 0.00 | 0.14 | 0.00 | 84 | 1008.5 |
| 20260507050811 | 52 | 329 | 3.0 | 8.0 | 0.00 | 0.14 | 0.00 | 82 | 1008.7 |
| 20260507050328 | 52 | 277 | 4.0 | 9.0 | 0.00 | 0.14 | 0.00 | 82 | 1008.7 |
| 20260507045822 | 52 | 350 | 5.0 | 12.0 | 0.00 | 0.14 | 0.00 | 81 | 1008.5 |
| 20260507045320 | 52 | 321 | 5.0 | 12.0 | 0.00 | 0.14 | 0.00 | 80 | 1008.7 |
| 20260507044816 | 53 | 323 | 4.0 | 12.0 | 0.00 | 0.14 | 0.00 | 80 | 1008.7 |
| 20260507044312 | 53 | 344 | 4.0 | 11.0 | 0.00 | 0.14 | 0.00 | 80 | 1008.9 |
| 20260507043828 | 53 | 327 | 4.0 | 11.0 | 0.00 | 0.14 | 0.00 | 80 | 1008.8 |
| 20260507043329 | 53 | 316 | 1.0 | 9.0 | 0.00 | 0.14 | 0.00 | 80 | 1008.8 |
| 20260507042826 | 53 | 343 | 3.0 | 9.0 | 0.00 | 0.14 | 0.00 | 79 | 1008.7 |
| 20260507042322 | 53 | 11 | 1.0 | 6.0 | 0.00 | 0.14 | 0.00 | 80 | 1008.8 |
| 20260507041818 | 53 | 15 | 2.0 | 6.0 | 0.00 | 0.14 | 0.00 | 79 | 1008.9 |
| 20260507041314 | 53 | 327 | 1.0 | 6.0 | 0.00 | 0.14 | 0.00 | 80 | 1008.8 |
| 20260507040830 | 53 | 330 | 1.0 | 6.0 | 0.00 | 0.14 | 0.00 | 79 | 1008.8 |
| 20260507040327 | 53 | 5 | 2.0 | 8.0 | 0.00 | 0.14 | 0.00 | 79 | 1008.9 |
| 20260507035827 | 53 | 324 | 3.0 | 8.0 | 0.00 | 0.14 | 0.14 | 80 | 1008.7 |
| 20260507035323 | 53 | 360 | 2.0 | 4.0 | 0.00 | 0.14 | 0.14 | 81 | 1008.8 |
| 20260507034818 | 53 | 12 | 2.0 | 6.0 | 0.00 | 0.14 | 0.14 | 80 | 1008.6 |
| 20260507034314 | 53 | 344 | 3.0 | 6.0 | 0.00 | 0.14 | 0.14 | 80 | 1008.6 |
| 20260507033830 | 53 | 306 | 3.0 | 6.0 | 0.00 | 0.14 | 0.14 | 81 | 1008.7 |
| 20260507033327 | 53 | 315 | 2.0 | 8.0 | 0.00 | 0.14 | 0.14 | 81 | 1008.6 |
| 20260507032823 | 53 | 324 | 3.0 | 10.0 | 0.00 | 0.14 | 0.14 | 81 | 1008.5 |
| 20260507032322 | 54 | 9 | 3.0 | 9.0 | 0.00 | 0.14 | 0.14 | 81 | 1008.4 |
| 20260507031819 | 54 | 335 | 3.0 | 9.0 | 0.00 | 0.14 | 0.14 | 82 | 1008.4 |
| 20260507031315 | 54 | 317 | 3.0 | 10.0 | 0.00 | 0.14 | 0.14 | 81 | 1008.4 |
| 20260507030811 | 54 | 318 | 5.0 | 14.0 | 0.00 | 0.14 | 0.14 | 81 | 1008.4 |
| 20260507030327 | 54 | 13 | 6.0 | 14.0 | 0.00 | 0.14 | 0.14 | 81 | 1008.6 |
| 20260507025822 | 54 | 347 | 6.0 | 11.0 | 0.00 | 0.14 | 0.14 | 82 | 1008.5 |
| 20260507025319 | 54 | 5 | 5.0 | 12.0 | 0.00 | 0.14 | 0.14 | 82 | 1008.6 |
| 20260507024819 | 54 | 325 | 7.0 | 12.0 | 0.00 | 0.14 | 0.14 | 82 | 1008.5 |
| 20260507024314 | 55 | 61 | 4.0 | 8.0 | 0.00 | 0.14 | 0.14 | 84 | 1008.6 |
| 20260507023811 | 55 | 331 | 4.0 | 9.0 | 0.00 | 0.14 | 0.14 | 85 | 1008.7 |
| 20260507023327 | 55 | 334 | 4.0 | 11.0 | 0.00 | 0.14 | 0.14 | 85 | 1008.5 |
| 20260507022824 | 56 | 340 | 5.0 | 11.0 | 0.00 | 0.14 | 0.14 | 85 | 1008.7 |
| 20260507022320 | 56 | 279 | 3.0 | 9.0 | 0.00 | 0.14 | 0.14 | 86 | 1008.7 |
| 20260507021816 | 56 | 338 | 1.0 | 11.0 | 0.00 | 0.14 | 0.14 | 86 | 1008.8 |
| 20260507021314 | 56 | 340 | 6.0 | 11.0 | 0.00 | 0.14 | 0.14 | 86 | 1008.9 |
| 20260507020811 | 56 | 355 | 3.0 | 13.0 | 0.01 | 0.14 | 0.14 | 87 | 1008.9 |
| 20260507020328 | 56 | 355 | 6.0 | 12.0 | 0.01 | 0.14 | 0.14 | 87 | 1008.8 |
| 20260507015824 | 57 | 275 | 3.0 | 6.0 | 0.01 | 0.14 | 0.14 | 87 | 1008.8 |
| 20260507015321 | 57 | 329 | 3.0 | 9.0 | 0.02 | 0.14 | 0.14 | 88 | 1008.8 |
| 20260507014818 | 57 | 336 | 3.0 | 9.0 | 0.02 | 0.14 | 0.14 | 89 | 1008.6 |
| 20260507014313 | 57 | 323 | 4.0 | 9.0 | 0.02 | 0.14 | 0.14 | 88 | 1008.5 |
| 20260507013813 | 57 | 319 | 3.0 | 6.0 | 0.02 | 0.14 | 0.14 | 88 | 1008.4 |
| 20260507013329 | 57 | 329 | 3.0 | 7.0 | 0.02 | 0.14 | 0.14 | 88 | 1008.4 |
| 20260507012824 | 58 | 308 | 1.0 | 8.0 | 0.02 | 0.14 | 0.14 | 88 | 1008.4 |
| 20260507012321 | 58 | 350 | 3.0 | 10.0 | 0.02 | 0.14 | 0.14 | 88 | 1008.5 |
| 20260507011818 | 58 | 128 | 5.0 | 10.0 | 0.02 | 0.14 | 0.14 | 88 | 1008.4 |
| 20260507011313 | 59 | 5 | 3.0 | 10.0 | 0.02 | 0.14 | 0.14 | 88 | 1008.2 |
| 20260507010830 | 59 | 340 | 3.0 | 11.0 | 0.01 | 0.13 | 0.13 | 88 | 1008.0 |
| 20260507010326 | 61 | 355 | 3.0 | 8.0 | 0.01 | 0.13 | 0.13 | 89 | 1007.8 |
| 20260507005825 | 61 | 296 | 3.0 | 11.0 | 0.00 | 0.12 | 0.12 | 90 | 1007.9 |
| 20260507005322 | 62 | 276 | 6.0 | 11.0 | 0.00 | 0.12 | 0.12 | 91 | 1007.8 |
| 20260507004818 | 62 | 276 | 0.0 | 0.0 | 0.00 | 0.12 | 0.12 | 92 | 1007.3 |
| 20260507004313 | 62 | 276 | 0.0 | 0.0 | 0.00 | 0.12 | 0.12 | 92 | 1007.3 |
| 20260507003830 | 62 | 324 | 0.0 | 1.0 | 0.00 | 0.12 | 0.12 | 92 | 1007.0 |
| 20260507003327 | 62 | 324 | 0.0 | 2.0 | 0.00 | 0.12 | 0.12 | 92 | 1007.0 |
| 20260507002822 | 62 | 238 | 0.0 | 0.0 | 0.00 | 0.12 | 0.12 | 92 | 1007.0 |
| 20260507002322 | 62 | 256 | 0.0 | 2.0 | 0.00 | 0.12 | 0.12 | 92 | 1007.0 |
| 20260507001818 | 62 | 123 | 0.0 | 1.0 | 0.00 | 0.12 | 0.12 | 92 | 1006.9 |
| 20260507001313 | 62 | 46 | 0.0 | 0.0 | 0.00 | 0.12 | 0.12 | 91 | 1006.9 |
| 20260507000830 | 62 | 22 | 0.0 | 0.0 | 0.00 | 0.12 | 0.12 | 91 | 1007.0 |
| 20260507000328 | 62 | 22 | 0.0 | 0.0 | 0.00 | 0.12 | 0.12 | 91 | 1007.1 |
| 20260506235823 | 62 | 22 | 0.0 | 0.0 | 0.00 | 0.12 | 0.12 | 91 | 1007.0 |
| 20260506235318 | 62 | 22 | 0.0 | 0.0 | 0.00 | 0.12 | 0.12 | 91 | 1007.0 |
| 20260506234819 | 62 | 22 | 0.0 | 0.0 | 0.00 | 0.12 | 0.12 | 91 | 1006.9 |
| 20260506234314 | 62 | 296 | 0.0 | 0.0 | 0.00 | 0.12 | 0.12 | 91 | 1006.9 |
| 20260506233830 | 62 | 296 | 0.0 | 0.0 | 0.00 | 0.12 | 0.12 | 91 | 1007.0 |
| 20260506233327 | 62 | 296 | 0.0 | 0.0 | 0.00 | 0.12 | 0.12 | 91 | 1006.9 |
| 20260506232823 | 62 | 296 | 0.0 | 0.0 | 0.00 | 0.12 | 0.12 | 90 | 1006.8 |
| 20260506232319 | 62 | 296 | 0.0 | 0.0 | 0.00 | 0.12 | 0.12 | 90 | 1006.8 |
| 20260506231816 | 62 | 296 | 0.0 | 1.0 | 0.00 | 0.12 | 0.12 | 90 | 1006.8 |
| 20260506231315 | 63 | 288 | 0.0 | 3.0 | 0.00 | 0.12 | 0.12 | 90 | 1006.7 |
| 20260506230852 | 62 | 87 | 0.0 | 1.0 | 0.00 | 0.12 | 0.12 | 90 | 1006.9 |
| 20260506230347 | 62 | 97 | 0.0 | 1.0 | 0.00 | 0.12 | 0.12 | 91 | 1006.9 |
| 20260506225821 | 62 | 360 | 0.0 | 1.0 | 0.00 | 0.12 | 0.12 | 91 | 1006.8 |
| 20260506225318 | 62 | 63 | 0.0 | 0.0 | 0.00 | 0.12 | 0.12 | 91 | 1006.8 |
| 20260506224814 | 62 | 63 | 0.0 | 1.0 | 0.00 | 0.12 | 0.12 | 91 | 1006.8 |
| 20260506224330 | 62 | 63 | 0.0 | 1.0 | 0.00 | 0.12 | 0.12 | 91 | 1006.7 |
| 20260506223826 | 62 | 57 | 0.0 | 1.0 | 0.00 | 0.12 | 0.12 | 91 | 1006.7 |
| 20260506223343 | 62 | 351 | 0.0 | 0.0 | 0.00 | 0.12 | 0.12 | 91 | 1006.6 |
| 20260506222821 | 62 | 329 | 0.0 | 1.0 | 0.00 | 0.12 | 0.12 | 91 | 1006.7 |
| 20260506222340 | 62 | 329 | 0.0 | 3.0 | 0.00 | 0.12 | 0.12 | 91 | 1006.7 |
| 20260506221834 | 62 | 134 | 0.0 | 0.0 | 0.00 | 0.12 | 0.12 | 91 | 1006.7 |
| 20260506221328 | 62 | 134 | 0.0 | 2.0 | 0.00 | 0.12 | 0.12 | 90 | 1006.6 |
| 20260506220844 | 62 | 98 | 0.0 | 3.0 | 0.00 | 0.12 | 0.12 | 90 | 1006.6 |
| 20260506220320 | 62 | 190 | 0.0 | 3.0 | 0.00 | 0.12 | 0.12 | 90 | 1006.6 |
| 20260506215815 | 62 | 196 | 0.0 | 1.0 | 0.00 | 0.12 | 0.12 | 90 | 1006.5 |
| 20260506215312 | 62 | 108 | 0.0 | 2.0 | 0.00 | 0.12 | 0.12 | 90 | 1006.3 |
| 20260506214812 | 62 | 145 | 0.0 | 2.0 | 0.00 | 0.12 | 0.12 | 90 | 1006.4 |
| 20260506214328 | 62 | 119 | 0.0 | 4.0 | 0.00 | 0.12 | 0.12 | 90 | 1006.4 |
| 20260506213824 | 62 | 208 | 1.0 | 4.0 | 0.00 | 0.12 | 0.12 | 90 | 1006.4 |
| 20260506213341 | 62 | 318 | 0.0 | 2.0 | 0.00 | 0.12 | 0.12 | 91 | 1006.4 |
| 20260506212815 | 62 | 148 | 0.0 | 2.0 | 0.00 | 0.12 | 0.12 | 91 | 1006.4 |
| 20260506212311 | 62 | 262 | 0.0 | 2.0 | 0.00 | 0.12 | 0.12 | 91 | 1006.3 |
| 20260506211828 | 62 | 111 | 0.0 | 2.0 | 0.00 | 0.12 | 0.12 | 91 | 1006.3 |
| 20260506211324 | 62 | 55 | 1.0 | 2.0 | 0.00 | 0.12 | 0.12 | 91 | 1006.3 |
| 20260506210824 | 62 | 87 | 0.0 | 4.0 | 0.00 | 0.12 | 0.12 | 91 | 1006.3 |
| 20260506210320 | 62 | 90 | 0.0 | 4.0 | 0.00 | 0.12 | 0.12 | 91 | 1006.2 |
| 20260506205815 | 62 | 173 | 0.0 | 3.0 | 0.00 | 0.12 | 0.12 | 91 | 1006.1 |
| 20260506205333 | 62 | 42 | 1.0 | 4.0 | 0.00 | 0.12 | 0.12 | 91 | 1006.0 |
| 20260506204829 | 61 | 336 | 1.0 | 4.0 | 0.00 | 0.12 | 0.12 | 91 | 1005.9 |
| 20260506204325 | 61 | 133 | 0.0 | 3.0 | 0.00 | 0.12 | 0.12 | 92 | 1005.9 |
| 20260506203841 | 61 | 142 | 1.0 | 3.0 | 0.00 | 0.12 | 0.12 | 91 | 1005.9 |
| 20260506203317 | 61 | 296 | 1.0 | 3.0 | 0.01 | 0.12 | 0.12 | 91 | 1005.9 |
| 20260506202833 | 61 | 344 | 1.0 | 5.0 | 0.01 | 0.12 | 0.12 | 91 | 1005.9 |
| 20260506202312 | 61 | 295 | 0.0 | 2.0 | 0.01 | 0.12 | 0.12 | 92 | 1005.9 |
| 20260506201828 | 61 | 111 | 0.0 | 2.0 | 0.01 | 0.12 | 0.12 | 92 | 1006.0 |
| 20260506201324 | 61 | 76 | 0.0 | 5.0 | 0.02 | 0.12 | 0.12 | 92 | 1006.0 |
| 20260506200821 | 61 | 205 | 1.0 | 5.0 | 0.02 | 0.12 | 0.12 | 92 | 1006.1 |
| 20260506200337 | 61 | 176 | 0.0 | 5.0 | 0.02 | 0.12 | 0.12 | 92 | 1006.1 |
| 20260506195811 | 61 | 126 | 0.0 | 5.0 | 0.02 | 0.12 | 0.12 | 92 | 1006.1 |
| 20260506195328 | 61 | 110 | 0.0 | 4.0 | 0.03 | 0.12 | 0.12 | 92 | 1006.1 |
| 20260506194845 | 62 | 126 | 1.0 | 6.0 | 0.03 | 0.12 | 0.12 | 92 | 1006.2 |
| 20260506194323 | 61 | 144 | 1.0 | 6.0 | 0.03 | 0.12 | 0.12 | 92 | 1006.3 |
| 20260506193819 | 62 | 207 | 0.0 | 4.0 | 0.03 | 0.12 | 0.12 | 92 | 1006.5 |
| 20260506193316 | 62 | 92 | 1.0 | 2.0 | 0.02 | 0.11 | 0.11 | 92 | 1006.5 |
| 20260506192811 | 61 | 144 | 1.0 | 4.0 | 0.02 | 0.11 | 0.11 | 92 | 1006.6 |
| 20260506192327 | 61 | 93 | 1.0 | 3.0 | 0.02 | 0.11 | 0.11 | 91 | 1006.7 |
| 20260506191824 | 61 | 54 | 0.0 | 4.0 | 0.02 | 0.11 | 0.11 | 91 | 1006.8 |
| 20260506191341 | 61 | 169 | 1.0 | 5.0 | 0.01 | 0.10 | 0.10 | 91 | 1006.8 |
| 20260506190816 | 61 | 103 | 1.0 | 3.0 | 0.01 | 0.10 | 0.10 | 91 | 1006.7 |
| 20260506190316 | 61 | 234 | 0.0 | 4.0 | 0.01 | 0.10 | 0.10 | 91 | 1006.7 |
| 20260506185812 | 61 | 290 | 0.0 | 3.0 | 0.01 | 0.10 | 0.10 | 91 | 1006.8 |
| 20260506185330 | 61 | 146 | 2.0 | 3.0 | 0.00 | 0.09 | 0.09 | 91 | 1006.6 |
| 20260506184825 | 62 | 160 | 1.0 | 3.0 | 0.00 | 0.09 | 0.09 | 91 | 1006.8 |
| 20260506184321 | 62 | 207 | 0.0 | 4.0 | 0.00 | 0.09 | 0.09 | 90 | 1006.9 |
| 20260506183837 | 62 | 79 | 1.0 | 5.0 | 0.01 | 0.09 | 0.09 | 90 | 1007.0 |
| 20260506183313 | 62 | 196 | 1.0 | 4.0 | 0.01 | 0.09 | 0.09 | 90 | 1006.8 |
| 20260506182812 | 62 | 178 | 0.0 | 3.0 | 0.01 | 0.09 | 0.09 | 90 | 1007.0 |
| 20260506182329 | 62 | 152 | 1.0 | 3.0 | 0.01 | 0.09 | 0.09 | 90 | 1007.0 |
| 20260506181826 | 62 | 107 | 1.0 | 3.0 | 0.01 | 0.09 | 0.09 | 89 | 1007.0 |
| 20260506181320 | 62 | 186 | 1.0 | 4.0 | 0.01 | 0.09 | 0.09 | 89 | 1007.0 |
| 20260506180837 | 62 | 172 | 1.0 | 4.0 | 0.01 | 0.09 | 0.09 | 89 | 1007.2 |
| 20260506180312 | 62 | 172 | 1.0 | 3.0 | 0.01 | 0.09 | 0.09 | 89 | 1007.3 |
| 20260506175848 | 63 | 170 | 1.0 | 3.0 | 0.02 | 0.09 | 0.09 | 89 | 1007.3 |
| 20260506175324 | 63 | 150 | 0.0 | 2.0 | 0.02 | 0.09 | 0.09 | 89 | 1007.3 |
| 20260506174819 | 63 | 96 | 0.0 | 3.0 | 0.02 | 0.09 | 0.09 | 89 | 1007.4 |
| 20260506174319 | 63 | 290 | 1.0 | 3.0 | 0.03 | 0.09 | 0.09 | 89 | 1007.4 |
| 20260506173816 | 63 | 101 | 0.0 | 4.0 | 0.02 | 0.08 | 0.08 | 90 | 1007.3 |
| 20260506173312 | 63 | 138 | 0.0 | 4.0 | 0.03 | 0.08 | 0.08 | 90 | 1007.3 |
| 20260506172848 | 63 | 144 | 0.0 | 3.0 | 0.03 | 0.08 | 0.08 | 90 | 1007.3 |
| 20260506172324 | 63 | 195 | 1.0 | 3.0 | 0.04 | 0.08 | 0.08 | 90 | 1007.4 |
| 20260506171819 | 63 | 168 | 0.0 | 3.0 | 0.04 | 0.08 | 0.08 | 91 | 1007.4 |
| 20260506171315 | 62 | 109 | 0.0 | 1.0 | 0.05 | 0.08 | 0.08 | 91 | 1007.5 |
| 20260506170815 | 62 | 105 | 0.0 | 7.0 | 0.05 | 0.08 | 0.08 | 90 | 1007.4 |
| 20260506170311 | 62 | 116 | 0.0 | 7.0 | 0.05 | 0.07 | 0.07 | 90 | 1007.3 |
| 20260506165827 | 62 | 167 | 0.0 | 2.0 | 0.06 | 0.07 | 0.07 | 90 | 1007.2 |
| 20260506165323 | 62 | 161 | 0.0 | 2.0 | 0.06 | 0.07 | 0.07 | 89 | 1007.3 |
| 20260506164820 | 62 | 87 | 0.0 | 2.0 | 0.06 | 0.07 | 0.07 | 89 | 1007.4 |
| 20260506164316 | 63 | 176 | 1.0 | 3.0 | 0.05 | 0.06 | 0.06 | 89 | 1007.6 |
| 20260506163813 | 63 | 154 | 1.0 | 2.0 | 0.05 | 0.06 | 0.06 | 89 | 1007.9 |
| 20260506163349 | 63 | 142 | 0.0 | 1.0 | 0.05 | 0.05 | 0.05 | 90 | 1008.0 |
| 20260506162828 | 62 | 142 | 0.0 | 2.0 | 0.05 | 0.05 | 0.05 | 89 | 1008.0 |
| 20260506162324 | 62 | 142 | 0.0 | 2.0 | 0.04 | 0.04 | 0.04 | 89 | 1008.2 |
| 20260506161820 | 63 | 147 | 0.0 | 1.0 | 0.04 | 0.04 | 0.04 | 88 | 1008.4 |
| 20260506161317 | 63 | 163 | 0.0 | 1.0 | 0.03 | 0.03 | 0.03 | 88 | 1008.4 |
| 20260506160834 | 63 | 163 | 0.0 | 1.0 | 0.03 | 0.03 | 0.03 | 87 | 1008.4 |
| 20260506160349 | 63 | 134 | 0.0 | 1.0 | 0.02 | 0.02 | 0.02 | 86 | 1008.4 |
| 20260506155825 | 64 | 134 | 0.0 | 1.0 | 0.01 | 0.01 | 0.01 | 85 | 1008.6 |
| 20260506155322 | 64 | 198 | 0.0 | 1.0 | 0.01 | 0.01 | 0.01 | 84 | 1008.7 |
| 20260506154822 | 64 | 169 | 0.0 | 1.0 | 0.01 | 0.01 | 0.01 | 84 | 1008.8 |
| 20260506154319 | 65 | 160 | 0.0 | 1.0 | 0.01 | 0.01 | 0.01 | 83 | 1008.7 |
| 20260506153815 | 65 | 5 | 0.0 | 2.0 | 0.00 | 0.00 | 0.00 | 82 | 1008.7 |
| 20260506153351 | 65 | 313 | 1.0 | 2.0 | 0.00 | 0.00 | 0.00 | 82 | 1008.5 |
| 20260506152826 | 65 | 98 | 0.0 | 2.0 | 0.00 | 0.00 | 0.00 | 81 | 1008.3 |
| 20260506152343 | 65 | 120 | 0.0 | 3.0 | 0.00 | 0.00 | 0.00 | 80 | 1008.6 |
| 20260506151818 | 65 | 245 | 0.0 | 2.0 | 0.00 | 0.00 | 0.00 | 79 | 1008.5 |
| 20260506151315 | 66 | 176 | 0.0 | 3.0 | 0.00 | 0.00 | 0.00 | 77 | 1008.5 |
| 20260506150832 | 66 | 113 | 0.0 | 3.0 | 0.00 | 0.00 | 0.00 | 75 | 1008.6 |
| 20260506150312 | 67 | 169 | 0.0 | 2.0 | 0.00 | 0.00 | 0.00 | 73 | 1008.7 |
| 20260506145828 | 67 | 66 | 1.0 | 2.0 | 0.00 | 0.00 | 0.00 | 72 | 1008.7 |
| 20260506145323 | 67 | 139 | 1.0 | 6.0 | 0.00 | 0.00 | 0.00 | 72 | 1008.7 |
| 20260506144821 | 67 | 89 | 1.0 | 6.0 | 0.00 | 0.00 | 0.00 | 71 | 1008.7 |
| 20260506144316 | 67 | 147 | 1.0 | 3.0 | 0.00 | 0.00 | 0.00 | 71 | 1008.7 |
| 20260506143813 | 68 | 192 | 1.0 | 3.0 | 0.00 | 0.00 | 0.00 | 71 | 1008.7 |
| 20260506143350 | 68 | 144 | 1.0 | 2.0 | 0.00 | 0.00 | 0.00 | 71 | 1008.7 |
| 20260506142824 | 68 | 160 | 1.0 | 6.0 | 0.00 | 0.00 | 0.00 | 71 | 1008.7 |
| 20260506142325 | 68 | 300 | 0.0 | 6.0 | 0.00 | 0.00 | 0.00 | 71 | 1008.6 |
| 20260506141821 | 67 | 144 | 1.0 | 5.0 | 0.00 | 0.00 | 0.00 | 72 | 1008.5 |
| 20260506141338 | 67 | 351 | 1.0 | 5.0 | 0.00 | 0.00 | 0.00 | 71 | 1008.7 |
| 20260506140813 | 67 | 23 | 0.0 | 3.0 | 0.00 | 0.00 | 0.00 | 72 | 1008.6 |
| 20260506140330 | 67 | 51 | 0.0 | 5.0 | 0.00 | 0.00 | 0.00 | 72 | 1008.7 |
| 20260506135827 | 67 | 259 | 2.0 | 5.0 | 0.00 | 0.00 | 0.00 | 71 | 1008.3 |
| 20260506135323 | 67 | 126 | 2.0 | 6.0 | 0.00 | 0.00 | 0.00 | 71 | 1008.5 |
| 20260506134822 | 67 | 15 | 1.0 | 7.0 | 0.00 | 0.00 | 0.00 | 71 | 1008.8 |
| 20260506134320 | 67 | 111 | 3.0 | 7.0 | 0.00 | 0.00 | 0.00 | 71 | 1008.8 |
| 20260506133816 | 67 | 160 | 1.0 | 6.0 | 0.00 | 0.00 | 0.00 | 72 | 1008.8 |
| 20260506133313 | 67 | 318 | 2.0 | 9.0 | 0.00 | 0.00 | 0.00 | 72 | 1008.8 |
| 20260506132828 | 67 | 140 | 1.0 | 9.0 | 0.00 | 0.00 | 0.00 | 72 | 1008.9 |
| 20260506132325 | 67 | 30 | 0.0 | 4.0 | 0.00 | 0.00 | 0.00 | 73 | 1009.0 |
| 20260506131822 | 66 | 108 | 1.0 | 5.0 | 0.00 | 0.00 | 0.00 | 72 | 1008.8 |
| 20260506131322 | 66 | 93 | 1.0 | 5.0 | 0.00 | 0.00 | 0.00 | 73 | 1008.8 |
| 20260506130838 | 66 | 130 | 1.0 | 5.0 | 0.00 | 0.00 | 0.00 | 74 | 1008.9 |
| 20260506130314 | 65 | 188 | 2.0 | 5.0 | 0.00 | 0.00 | 0.00 | 75 | 1008.9 |
| 20260506125828 | 65 | 21 | 1.0 | 3.0 | 0.00 | 0.00 | 0.00 | 75 | 1008.9 |
| 20260506125325 | 65 | 108 | 1.0 | 7.0 | 0.00 | 0.00 | 0.00 | 75 | 1008.8 |
| 20260506124821 | 65 | 195 | 0.0 | 5.0 | 0.00 | 0.00 | 0.00 | 75 | 1008.7 |
| 20260506124339 | 65 | 109 | 1.0 | 3.0 | 0.00 | 0.00 | 0.00 | 75 | 1008.4 |
| 20260506123814 | 65 | 200 | 0.0 | 3.0 | 0.00 | 0.00 | 0.00 | 75 | 1008.3 |
| 20260506123315 | 65 | 107 | 0.0 | 3.0 | 0.00 | 0.00 | 0.00 | 76 | 1008.4 |
| 20260506122812 | 65 | 131 | 1.0 | 2.0 | 0.00 | 0.00 | 0.00 | 76 | 1008.6 |
| 20260506122327 | 65 | 178 | 0.0 | 2.0 | 0.00 | 0.00 | 0.00 | 76 | 1008.6 |
| 20260506121824 | 65 | 109 | 0.0 | 2.0 | 0.00 | 0.00 | 0.00 | 76 | 1008.6 |
| 20260506121319 | 64 | 183 | 0.0 | 2.0 | 0.00 | 0.00 | 0.00 | 77 | 1008.7 |
| 20260506120814 | 64 | 111 | 0.0 | 3.0 | 0.00 | 0.00 | 0.00 | 77 | 1008.6 |
| 20260506120311 | 64 | 175 | 0.0 | 3.0 | 0.00 | 0.00 | 0.00 | 77 | 1008.8 |
| 20260506115810 | 64 | 73 | 1.0 | 3.0 | 0.00 | 0.00 | 0.00 | 77 | 1008.8 |
| 20260506115327 | 64 | 146 | 1.0 | 4.0 | 0.00 | 0.00 | 0.00 | 77 | 1008.8 |
| 20260506114823 | 64 | 178 | 1.0 | 4.0 | 0.00 | 0.00 | 0.00 | 77 | 1008.9 |
| 20260506114318 | 64 | 132 | 0.0 | 8.0 | 0.00 | 0.00 | 0.00 | 77 | 1009.0 |
| 20260506113814 | 64 | 298 | 1.0 | 8.0 | 0.00 | 0.00 | 0.00 | 77 | 1008.8 |
| 20260506113311 | 64 | 195 | 1.0 | 3.0 | 0.00 | 0.00 | 0.00 | 77 | 1009.0 |
| 20260506112827 | 64 | 57 | 1.0 | 3.0 | 0.00 | 0.00 | 0.00 | 77 | 1008.8 |
| 20260506112324 | 64 | 197 | 1.0 | 4.0 | 0.00 | 0.00 | 0.00 | 77 | 1008.7 |
| 20260506111823 | 64 | 242 | 1.0 | 4.0 | 0.00 | 0.00 | 0.00 | 77 | 1008.8 |
| 20260506111319 | 64 | 118 | 0.0 | 2.0 | 0.00 | 0.00 | 0.00 | 77 | 1008.8 |
| 20260506110816 | 64 | 61 | 1.0 | 2.0 | 0.00 | 0.00 | 0.00 | 78 | 1008.8 |
| 20260506110311 | 64 | 110 | 1.0 | 4.0 | 0.00 | 0.00 | 0.00 | 78 | 1008.7 |
| 20260506105827 | 64 | 207 | 1.0 | 4.0 | 0.00 | 0.00 | 0.00 | 78 | 1008.8 |
| 20260506105323 | 63 | 189 | 0.0 | 2.0 | 0.00 | 0.00 | 0.00 | 79 | 1008.7 |
| 20260506104819 | 63 | 147 | 0.0 | 2.0 | 0.00 | 0.00 | 0.00 | 80 | 1008.6 |
| 20260506104319 | 63 | 162 | 0.0 | 2.0 | 0.00 | 0.00 | 0.00 | 80 | 1008.6 |
| 20260506103814 | 63 | 186 | 0.0 | 3.0 | 0.00 | 0.00 | 0.00 | 80 | 1008.6 |
| 20260506103311 | 63 | 113 | 1.0 | 3.0 | 0.00 | 0.00 | 0.00 | 80 | 1008.6 |
| 20260506102828 | 63 | 115 | 0.0 | 2.0 | 0.00 | 0.00 | 0.00 | 80 | 1008.7 |
| 20260506102323 | 63 | 134 | 0.0 | 3.0 | 0.00 | 0.00 | 0.00 | 80 | 1008.7 |
| 20260506101819 | 63 | 131 | 0.0 | 3.0 | 0.00 | 0.00 | 0.00 | 80 | 1008.6 |
| 20260506101314 | 63 | 193 | 1.0 | 3.0 | 0.00 | 0.00 | 0.00 | 80 | 1008.4 |
| 20260506100814 | 63 | 158 | 0.0 | 3.0 | 0.00 | 0.00 | 0.00 | 80 | 1008.6 |
| 20260506100310 | 63 | 148 | 0.0 | 3.0 | 0.00 | 0.00 | 0.00 | 80 | 1008.6 |
| 20260506095826 | 63 | 170 | 0.0 | 1.0 | 0.00 | 0.00 | 0.00 | 80 | 1008.5 |
| 20260506095322 | 63 | 144 | 0.0 | 1.0 | 0.00 | 0.00 | 0.00 | 80 | 1008.4 |
| 20260506094818 | 63 | 174 | 0.0 | 2.0 | 0.00 | 0.00 | 0.00 | 80 | 1008.4 |
| 20260506094313 | 63 | 167 | 0.0 | 3.0 | 0.00 | 0.00 | 0.00 | 80 | 1008.4 |
| 20260506093829 | 63 | 147 | 1.0 | 4.0 | 0.00 | 0.00 | 0.00 | 80 | 1008.3 |
| 20260506093330 | 63 | 151 | 1.0 | 3.0 | 0.00 | 0.00 | 0.00 | 80 | 1008.3 |
| 20260506092826 | 63 | 166 | 0.0 | 3.0 | 0.00 | 0.00 | 0.00 | 80 | 1008.4 |
| 20260506092323 | 63 | 142 | 0.0 | 1.0 | 0.00 | 0.00 | 0.00 | 80 | 1008.4 |
| 20260506091819 | 63 | 142 | 0.0 | 4.0 | 0.00 | 0.00 | 0.00 | 80 | 1008.5 |
| 20260506091314 | 63 | 167 | 0.0 | 2.0 | 0.00 | 0.00 | 0.00 | 80 | 1008.4 |
| 20260506090811 | 63 | 195 | 0.0 | 2.0 | 0.00 | 0.00 | 0.00 | 80 | 1008.6 |
| 20260506090327 | 63 | 155 | 0.0 | 4.0 | 0.00 | 0.00 | 0.00 | 79 | 1008.6 |
| 20260506085826 | 63 | 144 | 0.0 | 4.0 | 0.00 | 0.00 | 0.00 | 79 | 1008.6 |
| 20260506085323 | 63 | 36 | 1.0 | 3.0 | 0.00 | 0.00 | 0.00 | 80 | 1008.6 |
| 20260506084819 | 63 | 140 | 0.0 | 2.0 | 0.00 | 0.00 | 0.00 | 79 | 1008.6 |
| 20260506084315 | 63 | 138 | 0.0 | 2.0 | 0.00 | 0.00 | 0.00 | 79 | 1008.7 |
| 20260506083811 | 63 | 138 | 0.0 | 3.0 | 0.00 | 0.00 | 0.00 | 79 | 1008.7 |
| 20260506083328 | 63 | 178 | 1.0 | 3.0 | 0.00 | 0.00 | 0.00 | 79 | 1008.7 |
| 20260506082824 | 63 | 141 | 0.0 | 3.0 | 0.00 | 0.00 | 0.00 | 79 | 1008.7 |
| 20260506082325 | 63 | 95 | 1.0 | 3.0 | 0.00 | 0.00 | 0.00 | 78 | 1008.8 |
| 20260506081822 | 63 | 111 | 0.0 | 2.0 | 0.00 | 0.00 | 0.00 | 77 | 1008.7 |
| 20260506081316 | 63 | 184 | 0.0 | 1.0 | 0.00 | 0.00 | 0.00 | 77 | 1008.8 |
| 20260506080812 | 63 | 121 | 0.0 | 1.0 | 0.00 | 0.00 | 0.00 | 77 | 1008.8 |
| 20260506080329 | 64 | 120 | 0.0 | 2.0 | 0.00 | 0.00 | 0.00 | 77 | 1008.7 |
| 20260506073330 | 64 | 163 | 0.0 | 3.0 | 0.00 | 0.00 | 0.00 | 74 | 1008.6 |
| 20260506072827 | 64 | 134 | 0.0 | 3.0 | 0.00 | 0.00 | 0.00 | 74 | 1008.7 |
| 20260506072323 | 64 | 182 | 0.0 | 2.0 | 0.00 | 0.00 | 0.00 | 74 | 1008.7 |
| 20260506071818 | 65 | 148 | 0.0 | 2.0 | 0.00 | 0.00 | 0.00 | 73 | 1008.7 |
| 20260506071318 | 65 | 171 | 0.0 | 2.0 | 0.00 | 0.00 | 0.00 | 72 | 1008.7 |
| 20260506070814 | 65 | 164 | 1.0 | 2.0 | 0.00 | 0.00 | 0.00 | 72 | 1008.7 |
| 20260506070311 | 65 | 135 | 0.0 | 5.0 | 0.00 | 0.00 | 0.00 | 71 | 1008.8 |